Weather in Nizhnegnutov

Russia / Volgograd Oblast     48°02′47″N   42°22′58″E
temp.,
°C
wind,
m/s
gust,
m/s
humid.,
%
clouds,
%
prec.,
mm/h
press.,
hPa
HPBL,
m
25 february, thu
thu2500:00−12s236485 0.0 1040206
03:00−12ssw346784 0.0 1039321
06:00−12ssw346996 0.0 1038299
09:00−11ssw466497 0.0 1037334
12:00−8ssw576098 0.0 1035406
15:00−6sw586299 0.0 1032492
18:00−6sw5973100 0.0 1030441
21:00−6sw61273100 0.0 1028378
26 february, fri
fri2600:00−4wsw61281100 0.0 1025392
03:00−2w71392100 0.4 1024440
06:000w71394100 0.3 1022399
09:00+1w71395100 0.6 1022380
12:00+2w61296100 0.2 1021406
15:00+3w51197100 0.4 1021351
18:00+3wsw51197100 0.0 1020317
21:00+2wsw6129699 0.0 1019334
27 february, sat
sat2700:00+3wsw7139796 0.0 1017460
03:00+3wsw7149498 0.0 1016482
06:00+3w61294100 0.1 1014455
09:00+3wsw61394100 0.2 1014428
12:00+6w81285100 0.0 1012851
15:00+6w71182100 0.1 1012893
18:00+3w51289100 0.0 1011376
21:00+2w51191100 0.1 1012303
28 february, sun
sun2800:00+2w4992100 0.0 1011242
03:00+1wnw4991100 0.1 1011312
06:00−1w359268 0.0 1012107
09:00+1wnw468464 0.0 1012383
12:00+4nw457583 0.1 1013782
15:00+4nw567390 0.2 1013819
18:00+1nnw4790100 0.3 1015439
21:00−1nnw488499 0.3 1018333
1 march, mon
mon100:00−2n368181 0.0 1020500
03:00−2nnw457288 0.0 1021799
06:00−3nnw457296 0.0 1023752
09:00−3nnw457098 0.0 1025770
12:00−1nnw4463100 0.0 1026871
15:000nnw4561100 0.1 10271045
18:00−1nnw4668100 0.0 1028808
21:00−2n456699 0.0 1030899